[[{"header":{"parameterUnit":"m.s-1","parameterCategory":1,"la1":30.2991,"la2":30.254,"lo1":-89.0895,"lo2":-89.0444,"dy":0.0017,"dx":0.0017,"nx":28,"ny":28,"refTime":"2025-06-03T21:00:00:Z","depth":0,"parameterNumber":2,"parameterNumberName":"U-component_of_WINDS"},"data":[0,0,0,0,0,0,0,0,0,0,0,0,0,0,0,0,0,0,0,0,0,0,0,0,0,0,0,0,0,0,0,0,0,0,0,0,0,0,0,0,0,0,0,0,0,0,0,0,0,0,0,0,0,0,0,0,0,0,0.037,0.037,0,0.0381,0.0381,0.0381,0.0394,0.0394,0.0395,0.0395,0.0405,0.0405,0.0406,0,0,0,0,0,0,0,0,0,0,0,0,0,0.0361,0.0361,0.037,0.037,0.0371,0.0381,0.0381,0.0381,0.0394,0.0394,0.0395,0.0395,0.0405,0.0405,0.0406,0,0,0,0,0,0,0,0,0,0,0,0,0,0.0367,0.0361,0.037,0.0378,0.0379,0.0381,0.0381,0.0381,0.0394,0.0394,0.0395,0.0395,0.0405,0.0405,0.0406,0.04,0,0,0.0406,0.0406,0,0,0,0,0,0,0,0,0.0367,0.0368,0.0377,0.0378,0.0379,0.0387,0.0382,0.0388,0.0394,0.0388,0.0395,0.0395,0.0399,0.04,0.0401,0.0401,0.0401,0.0406,0.0406,0.0406,0.0406,0,0,0,0,0,0,0,0.0366,0.0367,0.0375,0.0377,0.0378,0.0381,0.0382,0.0383,0.0392,0.0389,0.039,0.0391,0.0399,0.0401,0.0401,0.0401,0.0406,0.0406,0.0406,0.0406,0.0397,0.0396,0,0,0,0,0,0,0.0365,0.0367,0.0374,0.0375,0.0373,0.0381,0.0382,0.0384,0.0392,0.0393,0.0391,0.0391,0.04,0.0401,0.0402,0.0395,0.0406,0.0406,0.0406,0.0397,0.0397,0.0396,0,0,0,0,0,0,0.0365,0.0365,0.0374,0.0371,0.0372,0.0381,0.0382,0.0384,0.0385,0.0393,0.0395,0.039,0.0401,0.0401,0.04,0.0396,0.0406,0.0407,0.0397,0.0397,0.0396,0.0383,0,0,0,0,0,0,0.0364,0.0365,0.0364,0.0371,0.0372,0.0372,0.0382,0.0384,0.0385,0.0386,0.0393,0.0395,0.0401,0.04,0.04,0.0396,0.0407,0.0398,0.0397,0.0397,0.0384,0.0382,0.038,0,0,0,0,0,0.0364,0.036,0.0363,0.0364,0.0371,0.0372,0.0373,0.038,0.0385,0.0383,0.0388,0.0395,0.0396,0.04,0.04,0.0396,0.0398,0.0397,0.0397,0.0384,0.0382,0.038,0,0,0,0,0,0,0.0351,0.0361,0.0365,0.0363,0.0367,0.0374,0.0372,0.0378,0.038,0.0381,0.039,0.0392,0.0389,0.0393,0.0396,0.0391,0.0398,0.0397,0.0389,0.0387,0.0385,0.0384,0.0407,0,0,0,0,0,0.0348,0.0349,0.0357,0.0355,0.0356,0.0364,0.0365,0.037,0.0374,0.0376,0.0381,0.0385,0.0386,0.0387,0.0388,0.0384,0.0386,0.0382,0.038,0.0379,0.0378,0.0375,0.0373,0.0394,0.0394,0.0394,0,0,0.0342,0.0347,0.0347,0.0352,0.0356,0.0356,0.0365,0.0365,0.0365,0.0376,0.0375,0.0379,0.0383,0.038,0.038,0.0383,0.0372,0.0378,0.0376,0.0376,0.0374,0.0372,0.037,0.0393,0.0393,0.0393,0,0,0.0331,0.0335,0.0333,0.0336,0.0341,0.0346,0.0346,0.0353,0.0355,0.0355,0.0362,0.0362,0.0365,0.0367,0.0369,0.0358,0.0364,0.0358,0.0349,0.0347,0.0345,0.0344,0.0339,0.0337,0.0358,0.0358,0.0357,0,0.0323,0.0323,0.0331,0.0331,0.0332,0.0342,0.0339,0.0342,0.0347,0.0348,0.0352,0.0354,0.0358,0.0356,0.0353,0.0354,0.0353,0.0357,0.0345,0.0343,0.0342,0.0337,0.0336,0.0357,0.0357,0.0357,0.0357,0,0.0313,0.0313,0.031,0.0315,0.0316,0.0315,0.0322,0.0322,0.0327,0.0332,0.033,0.0335,0.0338,0.0337,0.0343,0.0335,0.0337,0.0343,0.035,0.0339,0.0335,0.0333,0.0356,0.0356,0.0356,0.0356,0,0,0.0294,0.0302,0.0301,0.0303,0.0309,0.0309,0.0308,0.031,0.031,0.0313,0.0311,0.0313,0.0318,0.032,0.0325,0.0323,0.0312,0.0328,0.0329,0.0324,0.0304,0.0299,0.0297,0.0316,0.0316,0.0316,0.0303,0,0.0283,0.0281,0.0288,0.0284,0.0284,0.0292,0.0291,0.0294,0.0298,0.0298,0.0303,0.0303,0.031,0.0311,0.0309,0.0314,0.0308,0.0315,0.0314,0.0314,0.0312,0.0295,0.029,0.0278,0.0301,0.0301,0.0301,0,0.027,0.0272,0.0268,0.0274,0.0274,0.0273,0.0275,0.0275,0.0279,0.0282,0.0283,0.0289,0.0288,0.0295,0.0292,0.0297,0.0297,0.0299,0.0299,0.0299,0.0306,0.0293,0.0274,0.0272,0.0299,0.0299,0.0299,0,0.0256,0.0258,0.0255,0.0257,0.0263,0.0262,0.0264,0.0268,0.0269,0.0271,0.0271,0.0273,0.0274,0.0275,0.0281,0.0286,0.0277,0.0285,0.0279,0.0279,0.0276,0.0276,0.0256,0.0278,0.0278,0.0278,0.0278,0,0.0243,0.024,0.0249,0.0247,0.0244,0.0252,0.0248,0.0251,0.0255,0.0254,0.0261,0.026,0.0269,0.0268,0.0273,0.027,0.027,0.0272,0.0273,0.0271,0.0271,0.0271,0.0271,0.0277,0.0277,0.0277,0.0278,0,0.0226,0.0232,0.023,0.0236,0.0237,0.0234,0.024,0.0238,0.0242,0.0241,0.0241,0.0248,0.0247,0.0254,0.0255,0.0258,0.0252,0.0255,0.0251,0.0252,0.0245,0.0245,0.0223,0.022,0.0244,0.0244,0.0244,0,0.0217,0.0215,0.022,0.022,0.0222,0.0222,0.0222,0.023,0.023,0.0233,0.0231,0.0231,0.0232,0.0231,0.0236,0.0237,0.0239,0.0232,0.024,0.0237,0.0238,0.0238,0.0237,0.023,0.023,0.0229,0.0229,0,0.02,0.0203,0.0203,0.0204,0.0205,0.0206,0.0208,0.0207,0.0215,0.0215,0.0214,0.0215,0.0216,0.0216,0.0217,0.022,0.0225,0.0227,0.0225,0.0222,0.0219,0.022,0.0245,0.0227,0.0227,0.0227,0.0228,0.0228,0.0186,0.0184,0.0187,0.0187,0.0189,0.0191,0.0189,0.0193,0.0193,0.0194,0.0199,0.0197,0.02,0.0203,0.0205,0.0203,0.0207,0.0205,0.0204,0.0204,0.0202,0.022,0.0204,0.0204,0.0204,0.0204,0.0204,0,0.0169,0.0171,0.0171,0.0173,0.0173,0.0178,0.018,0.018,0.0178,0.0181,0.0181,0.018,0.018,0.0185,0.0185,0.0183,0.0185,0.0183,0.0182,0.0183,0.0199,0.02,0.0181,0.0181,0.0181,0.0181,0.0181,0.0181,0.0159,0.0156,0.0159,0.0157,0.0159,0.0158,0.0158,0.0159,0.0161,0.016,0.0159,0.0162,0.0165,0.0166,0.0166,0.0167,0.0166,0.0162,0.0164,0.0179,0.0182,0.0184,0.0185,0.0162,0.0162,0.0148,0.0148,0.0148]},{"header":{"parameterUnit":"m.s-1","parameterCategory":1,"la1":30.2991,"la2":30.254,"lo1":-89.0895,"lo2":-89.0444,"dy":0.0017,"dx":0.0017,"nx":28,"ny":28,"refTime":"2025-06-03T21:00:00:Z","depth":0,"parameterNumber":3,"parameterNumberName":"V-component_of_WINDS"},"data":[0,0,0,0,0,0,0,0,0,0,0,0,0,0,0,0,0,0,0,0,0,0,0,0,0,0,0,0,0,0,0,0,0,0,0,0,0,0,0,0,0,0,0,0,0,0,0,0,0,0,0,0,0,0,0,0,0,0,2.4279,2.4279,0,2.429,2.429,2.4291,2.4237,2.4236,2.4234,2.4233,2.4244,2.4246,2.4248,0,0,0,0,0,0,0,0,0,0,0,0,0,2.4211,2.4212,2.4279,2.4279,2.4279,2.429,2.429,2.4291,2.4237,2.4236,2.4234,2.4232,2.4244,2.4246,2.4248,0,0,0,0,0,0,0,0,0,0,0,0,0,2.4233,2.4213,2.4279,2.4254,2.4252,2.429,2.429,2.4291,2.4238,2.4236,2.4233,2.4231,2.4243,2.4246,2.4248,2.4311,0,0,2.4256,2.4258,0,0,0,0,0,0,0,0,2.4232,2.4236,2.4258,2.4256,2.4254,2.426,2.4271,2.4298,2.4238,2.4243,2.4233,2.423,2.4252,2.4253,2.4261,2.4312,2.4312,2.4257,2.4258,2.4259,2.426,0,0,0,0,0,0,0,2.423,2.4235,2.4284,2.4258,2.4256,2.4242,2.4243,2.4275,2.426,2.4243,2.4239,2.4241,2.425,2.4258,2.426,2.4312,2.4257,2.4259,2.4261,2.4262,2.4413,2.4416,0,0,0,0,0,0,2.4232,2.4234,2.4283,2.4284,2.4237,2.4245,2.4246,2.426,2.426,2.4257,2.4243,2.4238,2.4255,2.4257,2.4261,2.4332,2.4259,2.4262,2.4263,2.4411,2.4414,2.4416,0,0,0,0,0,0,2.4231,2.4237,2.4283,2.4258,2.4263,2.4249,2.4265,2.4262,2.427,2.426,2.4257,2.4254,2.4253,2.4257,2.4298,2.4332,2.4263,2.4265,2.4408,2.4412,2.4415,2.4477,0,0,0,0,0,0,2.4229,2.4237,2.4261,2.4259,2.4264,2.4321,2.4268,2.4264,2.4274,2.4269,2.427,2.4268,2.4251,2.4295,2.4301,2.4334,2.4267,2.4405,2.441,2.4414,2.4472,2.4483,2.4492,0,0,0,0,0,2.4227,2.4279,2.4263,2.4269,2.4294,2.4323,2.4326,2.4306,2.4278,2.4301,2.4294,2.4267,2.4328,2.43,2.4306,2.4341,2.4403,2.4408,2.4414,2.4468,2.4481,2.4491,0,0,0,0,0,0,2.4286,2.4278,2.426,2.4313,2.4319,2.4314,2.4343,2.4321,2.4335,2.4329,2.4305,2.4305,2.4351,2.435,2.4319,2.44,2.436,2.4367,2.4399,2.4411,2.4421,2.4419,2.427,0,0,0,0,0,2.4305,2.4329,2.4321,2.4368,2.4372,2.4357,2.4369,2.4353,2.4359,2.4361,2.4358,2.4364,2.4384,2.4398,2.4416,2.4472,2.4471,2.4499,2.4509,2.4517,2.4523,2.4551,2.4563,2.4435,2.4435,2.4434,0,0,2.4344,2.4343,2.436,2.438,2.4383,2.4408,2.436,2.4389,2.4407,2.4366,2.4404,2.4402,2.4407,2.4456,2.4477,2.4457,2.4558,2.4524,2.4531,2.4532,2.4558,2.457,2.4581,2.4438,2.4438,2.4437,0,0,2.4429,2.4431,2.447,2.4473,2.4478,2.4467,2.4477,2.4475,2.4472,2.451,2.4479,2.45,2.4536,2.454,2.4547,2.4632,2.4607,2.4639,2.4689,2.4716,2.4726,2.4735,2.4764,2.4775,2.4645,2.4645,2.4645,0,2.4478,2.4514,2.4492,2.4523,2.4532,2.4495,2.4533,2.4538,2.4549,2.4555,2.4532,2.4575,2.4576,2.4624,2.4645,2.4652,2.4661,2.4638,2.4727,2.4735,2.4743,2.477,2.4781,2.4649,2.4648,2.4648,2.4648,0,2.4572,2.4598,2.4629,2.4639,2.4651,2.4686,2.4669,2.4684,2.4667,2.4659,2.4697,2.4697,2.4714,2.4724,2.4709,2.477,2.4757,2.4731,2.469,2.476,2.4784,2.4795,2.4654,2.4653,2.4652,2.4651,0,0,2.4694,2.4691,2.4702,2.4706,2.4708,2.4727,2.4759,2.4775,2.4788,2.4796,2.4822,2.4852,2.4827,2.4835,2.482,2.4844,2.4909,2.4815,2.4814,2.4831,2.4975,2.4993,2.5005,2.4893,2.4895,2.4897,2.4974,0,2.4776,2.483,2.481,2.4866,2.4888,2.4853,2.4881,2.4885,2.4878,2.4896,2.4889,2.491,2.4877,2.4881,2.4904,2.4896,2.4937,2.4891,2.4915,2.4917,2.4913,2.5019,2.5038,2.5111,2.4983,2.4985,2.4986,0,2.4878,2.4889,2.4946,2.4942,2.4951,2.4976,2.4988,2.5006,2.501,2.5003,2.5011,2.499,2.502,2.498,2.5021,2.499,2.4999,2.4997,2.4999,2.5,2.4955,2.502,2.5134,2.5144,2.5002,2.5,2.4999,0,2.4958,2.4988,2.5025,2.503,2.5027,2.5045,2.5045,2.5046,2.5056,2.5067,2.5073,2.5087,2.5095,2.5106,2.5089,2.5062,2.5132,2.5091,2.5126,2.5127,2.5142,2.5141,2.5257,2.515,2.515,2.515,2.515,0,2.505,2.5086,2.5061,2.5084,2.5123,2.51,2.5139,2.5135,2.5136,2.5157,2.5129,2.5149,2.5126,2.5144,2.5132,2.5166,2.5171,2.5165,2.5161,2.5167,2.5167,2.5171,2.5165,2.5153,2.5152,2.5152,2.5151,0,2.5146,2.5131,2.5169,2.5163,2.5163,2.5191,2.5186,2.5206,2.5197,2.5224,2.5229,2.5215,2.5235,2.5219,2.5239,2.523,2.5276,2.5265,2.5274,2.5271,2.5306,2.5303,2.5428,2.5443,2.5328,2.533,2.533,0,2.5205,2.5231,2.5227,2.5239,2.524,2.526,2.527,2.5249,2.526,2.5265,2.5285,2.5302,2.5314,2.5347,2.5339,2.5353,2.5342,2.5385,2.5344,2.5348,2.534,2.5338,2.534,2.5392,2.5394,2.5395,2.5396,0,2.531,2.5301,2.5316,2.5328,2.534,2.5349,2.5355,2.5367,2.5345,2.5359,2.5378,2.5388,2.5407,2.5424,2.5435,2.5435,2.5411,2.5409,2.5418,2.5423,2.5426,2.5423,2.5295,2.5406,2.5405,2.5404,2.5404,2.5403,2.5388,2.5409,2.5409,2.5426,2.5429,2.5435,2.5453,2.5446,2.5462,2.5475,2.5462,2.5485,2.5486,2.5499,2.5501,2.5519,2.5501,2.5514,2.5517,2.552,2.5524,2.5425,2.5521,2.5521,2.552,2.552,2.552,0,2.549,2.5488,2.5504,2.5513,2.5526,2.5503,2.5509,2.5521,2.5542,2.5545,2.5557,2.5579,2.5595,2.5587,2.5601,2.5616,2.5606,2.562,2.5618,2.5618,2.554,2.553,2.5628,2.5628,2.5628,2.5628,2.5628,2.5628,2.5544,2.5578,2.5569,2.5603,2.5601,2.5623,2.5628,2.5633,2.5635,2.566,2.5673,2.5668,2.5666,2.568,2.5693,2.569,2.5696,2.5714,2.5708,2.5635,2.5624,2.5614,2.5604,2.5716,2.5716,2.5784,2.5784,2.5785]}]]